This demonstration page uses our WeatherBlox Daily Observations layout. Learn more.

Left ArrowRight Arrow

Hourly Observations for November 17, 2016

Temp ( °F °C ) Dew Point ( °F °C ) Humidity (%) Winds ( mph kmh ) Pressure ( in mb ) Visibility ( mi km ) Precip ( " mm )
12:53 am 00:53 Clear 53 11.7 46 7.8 77 77 ESE 7 11 29.72 1007 10 16 0.00 0.00
1:53 am 01:53 Clear 52 11.1 47 8.3 83 83 SE 8 13 29.71 1006 10 16 0.00 0.00
2:53 am 02:53 Clear 53 11.7 48 8.9 83 83 SE 9 15 29.69 1006 10 16 0.00 0.00
3:53 am 03:53 Clear 52 11.1 47 8.3 83 83 ESE 6 9 29.69 1005 10 16 0.00 0.00
4:53 am 04:53 Clear 52 11.1 47 8.3 83 83 ESE 6 9 29.70 1006 10 16 0.00 0.00
5:53 am 05:53 Clear 52 11.1 47 8.3 83 83 SE 8 13 29.70 1006 10 16 0.00 0.00
6:53 am 06:53 Clear 51 10.6 47 8.3 86 86 SE 9 15 29.71 1006 10 16 0.00 0.00
7:53 am 07:53 Sunny 52 11.1 47 8.3 83 83 SSE 6 9 29.74 1007 10 16 0.00 0.00
8:53 am 08:53 Sunny 56 13.3 47 8.3 72 72 undefined N/A 29.73 1007 10 16 0.00 0.00
9:53 am 09:53 Sunny 62 16.7 46 7.8 56 56 SSE 3 6 29.73 1007 10 16 0.00 0.00
10:53 am 10:53 Sunny 64 17.8 46 7.8 52 52 undefined N/A 29.73 1007 10 16 0.00 0.00
11:53 am 11:53 Sunny 69 20.6 43 6.1 39 39 S 8 13 29.70 1006 10 16 0.00 0.00
12:53 pm 12:53 Sunny 77 25 36 2.2 23 23 WSW 17 28 29.67 1005 10 16 0.00 0.00
1:53 pm 13:53 Sunny with Light Rain 81 27.2 32 0 17 17 WSW 25 41 29.63 1003 10 16 0.00 0.03
2:53 pm 14:53 Sunny 82 27.8 29 -1.7 14 14 WSW 20 31 29.60 1003 10 16 0.00 0.03
3:53 pm 15:53 Sunny 82 27.8 29 -1.7 14 14 SW 18 30 29.61 1003 10 16 0.00 0.00
4:53 pm 16:53 Sunny 81 27.2 27 -2.8 14 14 WSW 17 28 29.62 1003 10 16 0.00 0.00
5:53 pm 17:53 Clear 74 23.3 29 -1.7 19 19 W 8 13 29.66 1004 10 16 0.00 0.03
6:53 pm 18:53 Clear 75 23.9 27 -2.8 17 17 WSW 14 22 29.68 1005 10 16 0.00 0.03
7:53 pm 19:53 Clear 63 17.2 31 -0.6 30 30 SSW 8 13 29.72 1007 10 16 0.00 0.00
8:53 pm 20:53 Clear with Light Rain 63 17.2 32 0 31 31 SW 9 15 29.74 1007 10 16 0.00 0.03
9:53 pm 21:53 Clear 60 15.6 33 0.6 36 36 SW 6 9 29.75 1008 10 16 0.00 0.03
10:53 pm 22:53 Clear with Light Rain 56 13.3 34 1.1 44 44 SSW 8 13 29.78 1009 10 16 0.00 0.03
11:53 pm 23:53 Clear 53 11.7 45 7.2 74 74 SE 7 11 29.80 1009 10 16 0.00 0.03

Powered by AerisWeather